This is the latest recevied weather packets stored in our database for station/object N5UKZ-WX. If no packets are shown the sender has not sent any weather packets the latest 10 day(s).
| Time | Temp. | Humidity | Pressure | Rain* | Wind** | Luminosity | Snow |
|---|---|---|---|---|---|---|---|
| 1787738171 | 25° C | 95% | 1015.3 hPa | 0 mm | - | - | - |
| 1787737241 | 25° C | 95% | 1015.3 hPa | 0 mm | - | - | - |
| 1787736311 | 24.44° C | 95% | 1015.3 hPa | 0 mm | - | - | - |
| 1787735411 | 24.44° C | 95% | 1014.9 hPa | 0 mm | - | - | - |
| 1787734511 | 24.44° C | 95% | 1014.9 hPa | 0 mm | - | - | - |
| 1787733581 | 24.44° C | 94% | 1014.9 hPa | 0 mm | - | - | - |
| 1787732651 | 24.44° C | 94% | 1014.6 hPa | 0 mm | - | - | - |
| 1787731751 | 24.44° C | 94% | 1014.9 hPa | 0 mm | - | - | - |
| 1787730821 | 25° C | 94% | 1014.6 hPa | 0 mm | - | - | - |
| 1787729891 | 25.56° C | 93% | 1014.6 hPa | 0 mm | - | - | - |
| 1787728961 | 24.44° C | 93% | 1014.9 hPa | 0 mm | - | - | - |
| 1787728031 | 25° C | 92% | 1014.9 hPa | 0 mm | - | - | - |
| 1787727101 | 25° C | 92% | 1014.9 hPa | 0 mm | - | - | - |
| 1787726171 | 25° C | 91% | 1015.3 hPa | 0 mm | - | - | - |
| 1787725241 | 25° C | 90% | 1015.3 hPa | 0 mm | - | - | - |
| 1787724341 | 25.56° C | 90% | 1015.3 hPa | 0 mm | - | - | - |
| 1787723411 | 25° C | 90% | 1015.3 hPa | 0 mm | - | - | - |
| 1787722481 | 26.11° C | 89% | 1015.3 hPa | 0 mm | - | - | - |
| 1787721581 | 25° C | 89% | 1015.3 hPa | 0 mm | - | - | - |
| 1787720651 | 25.56° C | 88% | 1015.6 hPa | 0 mm | - | - | - |
| 1787719751 | 25.56° C | 87% | 1015.3 hPa | 0 mm | - | - | - |
| 1787718821 | 26.11° C | 87% | 1015.6 hPa | 0 mm | - | - | - |
| 1787717891 | 26.11° C | 86% | 1015.6 hPa | 0 mm | - | - | - |
| 1787716991 | 26.67° C | 85% | 1015.6 hPa | 0 mm | - | - | - |
| 1787716061 | 25.56° C | 85% | 1015.6 hPa | 0 mm | - | - | - |
* Rain latest hour (hover to see other rain measurements)
** Current wind speed in m/s (hover to see current wind gust speed)